Location: Malvern Link
(52.1333°N, 2.3000°W)
Time: 15:47:08
(UTC+00:00)

SO-50 - Pass Details

Date: 02 July 2022
Orbit: 585 x 698 km, 64.6° (Epoch: 11 August)

Event Time Altitude Azimuth Distance (km) Brightness Sun altitude
Exits shadow 00:45:29 22° 206° (SSW) 1,442 ? -14.5°
Maximum altitude 00:48:29 68° 129° (SE) 727 ? -14.4°
Drops below altitude 10° 00:53:20 10° 47° (NE) 2,142 ? -14.3°
Sets 00:55:43 0° 45° (NE) 3,073 ? -14.2°
